This is the latest recevied weather packets stored in our database for station/object KF7ROW. If no packets are shown the sender has not sent any weather packets the latest 10 day(s).
| Time | Temp. | Humidity | Pressure | Rain* | Wind** | Luminosity | Snow |
|---|---|---|---|---|---|---|---|
| 1778113784 | 12.78° C | 89% | 1026.8 hPa | 0 mm | - | 75 W/m² | - |
| 1778113481 | 12.78° C | 89% | 1026.8 hPa | 0 mm | - | 70 W/m² | - |
| 1778113178 | 12.78° C | 89% | 1026.6 hPa | 0 mm | - | 88 W/m² | - |
| 1778112874 | 12.78° C | 89% | 1026.8 hPa | 0 mm | - | 100 W/m² | - |
| 1778112572 | 12.78° C | 89% | 1026.7 hPa | 0 mm | - | 107 W/m² | - |
| 1778112267 | 12.78° C | 90% | 1026.8 hPa | 0 mm | - | 117 W/m² | - |
| 1778111963 | 12.78° C | 90% | 1026.9 hPa | 0 mm | - | 145 W/m² | - |
| 1778111661 | 12.78° C | 89% | 1026.9 hPa | 0 mm | - | 144 W/m² | - |
| 1778111356 | 12.78° C | 90% | 1027 hPa | 0 mm | - | 131 W/m² | - |
| 1778111055 | 12.78° C | 90% | 1026.8 hPa | 0 mm | - | 107 W/m² | - |
| 1778110752 | 12.78° C | 90% | 1026.9 hPa | 0 mm | - | 93 W/m² | - |
| 1778110448 | 12.78° C | 90% | 1026.9 hPa | 0 mm | - | 110 W/m² | - |
| 1778110145 | 12.78° C | 90% | 1026.9 hPa | 0 mm | - | 165 W/m² | - |
| 1778109841 | 12.78° C | 90% | 1026.9 hPa | 0 mm | - | 167 W/m² | - |
| 1778109536 | 12.78° C | 89% | 1026.9 hPa | 0 mm | - | 165 W/m² | - |
| 1778109234 | 12.78° C | 89% | 1026.9 hPa | 0 mm | - | 189 W/m² | - |
| 1778108932 | 12.78° C | 89% | 1027 hPa | 0 mm | - | 194 W/m² | - |
| 1778108628 | 12.78° C | 89% | 1027.1 hPa | 0 mm | - | 152 W/m² | - |
| 1778108324 | 12.78° C | 88% | 1027.2 hPa | 0 mm | - | 152 W/m² | - |
| 1778108022 | 13.33° C | 86% | 1027 hPa | 0 mm | - | 197 W/m² | - |
| 1778107719 | 12.78° C | 87% | 1027 hPa | 0 mm | - | 183 W/m² | - |
| 1778107416 | 12.78° C | 87% | 1026.9 hPa | 0 mm | - | 213 W/m² | - |
| 1778107113 | 12.78° C | 86% | 1026.9 hPa | 0 mm | - | 196 W/m² | - |
| 1778106807 | 13.33° C | 87% | 1027.2 hPa | 0 mm | - | 175 W/m² | - |
| 1778106505 | 13.33° C | 86% | 1027 hPa | 0 mm | - | 157 W/m² | - |
* Rain latest hour (hover to see other rain measurements)
** Current wind speed in m/s (hover to see current wind gust speed)